EW9033 Weather Reports


time (UTC)temp
F
wind
direction
speed
knots
gust
knots
rain 1hr
in
rain 24hr
in
rain mn
in
humidity
%
barometer
mb
20260508012506 49 304 0.9 2.6 0.00 0.00 0.00 57 1012.2
20260508012004 50 308 0.0 2.6 0.00 0.00 0.00 57 1012.2
20260508011513 50 327 0.0 3.5 0.00 0.00 0.00 56 1012.1
20260508011003 50 319 0.9 3.5 0.00 0.00 0.00 55 1012.0
20260508010503 50 309 0.9 4.3 0.00 0.00 0.00 55 1012.0
20260508010013 50 327 0.9 4.3 0.00 0.00 0.00 55 1012.0
20260508005505 51 331 1.7 5.2 0.00 0.00 0.00 54 1011.9
20260508005006 51 322 2.6 5.2 0.00 0.00 0.00 54 1011.8
20260508004509 51 321 0.9 7.0 0.00 0.00 0.00 53 1011.8
20260508004004 52 322 1.7 12.2 0.00 0.00 0.00 52 1011.7
20260508003507 52 292 4.3 12.2 0.00 0.00 0.00 51 1011.7
20260508003010 52 312 6.1 10.4 0.00 0.00 0.00 51 1011.6
20260508002504 52 296 3.5 9.6 0.00 0.00 0.00 50 1011.4
20260508002004 52 15 2.6 6.1 0.00 0.00 0.00 50 1011.4
20260508001511 53 5 0.9 9.6 0.00 0.00 0.00 49 1011.2
20260508001004 53 326 4.3 9.6 0.00 0.00 0.00 48 1011.2
20260508000504 53 328 2.6 7.0 0.00 0.00 0.00 46 1011.1
20260508000008 53 309 2.6 8.7 0.00 0.00 0.00 45 1011.0
20260507235504 54 327 3.5 11.3 0.00 0.00 0.00 44 1010.9
20260507234004 55 306 6.1 13.9 0.00 0.00 0.00 40 1010.9
20260507233504 55 341 5.2 10.4 0.00 0.00 0.00 40 1010.8
20260507232504 55 292 4.3 15.6 0.00 0.00 0.00 39 1010.7
20260507232003 55 294 6.1 14.8 0.00 0.00 0.00 39 1010.7
20260507231510 55 348 7.8 14.8 0.00 0.00 0.00 39 1010.6
20260507231007 55 319 4.3 13.0 0.00 0.00 0.00 40 1010.5
20260507230509 55 237 5.2 13.0 0.00 0.00 0.00 40 1010.5
20260507230008 55 338 8.7 15.6 0.00 0.00 0.00 39 1010.4
20260507225504 55 301 4.3 15.6 0.00 0.00 0.00 38 1010.4
20260507225007 56 295 5.2 10.4 0.00 0.00 0.00 40 1010.4
20260507223010 56 302 4.3 9.6 0.00 0.00 0.00 38 1010.2
20260507222504 56 300 1.7 15.6 0.00 0.00 0.00 39 1010.2
20260507222004 57 315 6.1 15.6 0.00 0.00 0.00 37 1010.1
20260507221517 57 320 2.6 9.6 0.00 0.00 0.00 38 1010.1
20260507221007 57 211 3.5 11.3 0.00 0.00 0.00 41 1010.1
20260507220506 58 241 6.1 11.3 0.00 0.00 0.00 36 1010.0
20260507220013 58 275 6.1 11.3 0.00 0.00 0.00 37 1009.9
20260507215505 58 292 1.7 10.4 0.00 0.00 0.00 40 1009.9
20260507215005 58 315 6.1 10.4 0.00 0.00 0.00 39 1009.8
20260507214509 58 327 6.1 15.6 0.00 0.00 0.00 38 1009.8
20260507214002 57 360 7.0 15.6 0.00 0.00 0.00 38 1009.8
20260507213509 58 333 7.0 14.8 0.00 0.00 0.00 37 1009.7
20260507212507 58 321 4.3 13.9 0.00 0.00 0.00 36 1009.6
20260507212003 59 321 7.0 13.9 0.00 0.00 0.00 36 1009.7
20260507211519 60 333 3.5 12.2 0.00 0.00 0.00 34 1009.7
20260507211004 59 294 3.5 13.9 0.00 0.00 0.00 39 1009.6
20260507210502 57 313 7.0 13.9 0.00 0.00 0.00 36 1009.5
20260507210031 58 329 4.3 10.4 0.00 0.00 0.00 38 1009.5
20260507205503 59 318 1.7 11.3 0.00 0.00 0.00 36 1009.5
20260507205004 59 317 4.3 14.8 0.00 0.00 0.00 40 1009.5
20260507204509 58 267 7.0 14.8 0.00 0.00 0.00 39 1009.5
20260507204003 58 262 9.6 14.8 0.00 0.00 0.00 37 1009.5
20260507203503 57 262 6.1 13.0 0.00 0.00 0.00 38 1009.5
20260507203009 57 300 7.0 13.0 0.00 0.00 0.00 40 1009.4
20260507201509 58 333 7.8 14.8 0.00 0.00 0.00 39 1009.5
20260507201003 57 207 4.3 13.9 0.00 0.00 0.00 38 1009.5
20260507200504 57 263 6.1 13.9 0.00 0.00 0.00 38 1009.6
20260507200010 57 275 8.7 14.8 0.00 0.00 0.00 38 1009.6
20260507195506 58 254 8.7 14.8 0.00 0.00 0.00 36 1009.6
20260507195004 57 350 6.1 11.3 0.00 0.00 0.00 38 1009.7
20260507194508 57 302 7.8 13.9 0.00 0.00 0.00 37 1009.7
20260507194002 59 300 4.3 13.9 0.00 0.00 0.00 37 1009.8
20260507193506 60 291 3.5 9.6 0.00 0.00 0.00 38 1009.7
20260507193010 60 37 2.6 10.4 0.00 0.00 0.00 39 1009.8
20260507192502 59 264 4.3 10.4 0.00 0.00 0.00 38 1009.7
20260507192006 59 278 1.7 13.0 0.00 0.00 0.00 37 1009.8
20260507190504 58 270 6.1 12.2 0.00 0.00 0.00 36 1009.8
20260507185503 58 301 2.6 13.0 0.00 0.00 0.00 42 1009.8
20260507185005 57 254 3.5 10.4 0.00 0.00 0.00 43 1009.9
20260507184515 56 284 4.3 10.4 0.00 0.00 0.00 43 1010.0
20260507184006 57 281 5.2 12.2 0.00 0.00 0.00 40 1010.1
20260507183508 56 315 4.3 12.2 0.00 0.00 0.00 41 1010.1
20260507183010 56 250 5.2 11.3 0.00 0.00 0.00 42 1010.1
20260507182507 57 320 3.5 11.3 0.00 0.00 0.00 39 1010.1
20260507182007 57 300 5.2 9.6 0.00 0.00 0.00 43 1010.1
20260507181508 56 279 5.2 11.3 0.00 0.00 0.00 43 1010.1
20260507180010 56 26 6.1 11.3 0.00 0.00 0.00 42 1010.2
20260507175504 56 13 2.6 10.4 0.00 0.00 0.00 43 1010.3
20260507175004 56 271 3.5 12.2 0.00 0.00 0.00 43 1010.3
20260507174513 57 304 3.5 12.2 0.00 0.00 0.00 44 1010.3
20260507174003 57 340 4.3 9.6 0.00 0.00 0.00 42 1010.4
20260507173503 56 326 4.3 8.7 0.00 0.00 0.00 44 1010.4
20260507173011 56 281 1.7 8.7 0.00 0.00 0.00 44 1010.5
20260507172504 56 329 3.5 8.7 0.00 0.00 0.00 44 1010.6
20260507172004 55 202 3.5 12.2 0.00 0.00 0.00 45 1010.6
20260507171512 55 331 7.8 12.2 0.00 0.00 0.00 44 1010.7
20260507171005 55 281 3.5 11.3 0.00 0.00 0.00 46 1010.7
20260507170506 55 259 3.5 9.6 0.00 0.00 0.00 48 1010.7
20260507170010 55 279 2.6 9.6 0.00 0.00 0.00 49 1010.8
20260507165003 55 176 2.6 7.8 0.00 0.00 0.00 49 1010.8
20260507164006 55 209 4.3 9.6 0.00 0.00 0.00 50 1010.9
20260507163504 55 256 4.3 9.6 0.00 0.00 0.00 49 1010.9
20260507163009 55 314 2.6 8.7 0.00 0.00 0.00 53 1011.0
20260507162505 54 274 1.7 6.1 0.00 0.00 0.00 50 1011.1
20260507162004 54 290 2.6 8.7 0.00 0.00 0.00 51 1011.1
20260507161509 54 301 2.6 8.7 0.00 0.00 0.00 50 1011.1
20260507161004 54 340 4.3 8.7 0.00 0.00 0.00 49 1011.1
20260507160506 54 330 4.3 9.6 0.00 0.00 0.00 47 1011.1
20260507160013 54 285 3.5 9.6 0.00 0.00 0.00 47 1011.2
20260507155505 55 306 5.2 9.6 0.00 0.00 0.00 44 1011.2
20260507154516 55 298 1.7 9.6 0.00 0.00 0.00 47 1011.2
20260507154003 55 299 5.2 9.6 0.00 0.00 0.00 50 1011.4
20260507153504 54 284 3.5 8.7 0.00 0.00 0.00 46 1011.3
20260507153023 54 217 3.5 11.3 0.00 0.00 0.00 50 1011.4
20260507152510 54 236 4.3 11.3 0.00 0.00 0.00 45 1011.4
20260507152012 55 154 6.1 13.0 0.00 0.00 0.00 47 1011.4
20260507151526 55 269 7.0 13.0 0.00 0.00 0.00 48 1011.5
20260507151011 54 257 4.3 8.7 0.00 0.00 0.00 49 1011.5
20260507150511 54 338 0.9 13.0 0.00 0.00 0.00 50 1011.7
20260507150027 54 277 4.3 13.0 0.00 0.00 0.00 47 1011.8
20260507145510 55 241 1.7 9.6 0.00 0.00 0.00 50 1011.7
20260507145010 55 208 4.3 9.6 0.00 0.00 0.00 54 1011.8
20260507144526 54 256 1.7 8.7 0.00 0.00 0.00 54 1011.9
20260507144010 54 265 2.6 9.6 0.00 0.00 0.00 53 1012.0
20260507143504 53 239 5.2 9.6 0.00 0.00 0.00 52 1012.1
20260507142503 53 248 3.5 9.6 0.00 0.00 0.00 56 1012.2
20260507142012 53 293 5.2 8.7 0.00 0.00 0.00 55 1012.3
20260507141511 52 261 2.6 10.4 0.00 0.00 0.00 57 1012.3
20260507141004 53 210 4.3 10.4 0.00 0.00 0.00 58 1012.3
20260507140504 53 276 1.7 6.1 0.00 0.00 0.00 59 1012.4
20260507140012 53 229 2.6 7.8 0.00 0.00 0.00 61 1012.4
20260507135505 51 247 3.5 8.7 0.00 0.00 0.00 61 1012.5
20260507135005 51 346 4.3 8.7 0.00 0.00 0.00 61 1012.5
20260507134510 51 76 1.7 7.8 0.00 0.00 0.00 63 1012.5
20260507133503 50 284 2.6 7.0 0.00 0.00 0.00 64 1012.7
20260507133008 51 303 2.6 7.0 0.00 0.00 0.00 65 1012.7
20260507132503 50 252 2.6 5.2 0.00 0.00 0.00 65 1012.7
20260507132006 50 244 0.9 5.2 0.00 0.00 0.00 68 1012.7
20260507131517 49 221 0.9 8.7 0.00 0.00 0.00 68 1012.7
20260507131003 49 182 2.6 8.7 0.00 0.00 0.00 68 1012.8
20260507130505 48 240 2.6 6.1 0.00 0.00 0.00 71 1012.8
20260507130021 48 169 0.9 6.1 0.00 0.00 0.00 72 1012.7
20260507125508 48 229 2.6 5.2 0.00 0.00 0.00 75 1012.8
20260507125008 47 271 2.6 5.2 0.00 0.00 0.00 75 1012.7
20260507124511 46 252 0.9 6.1 0.00 0.00 0.00 79 1012.8
20260507124003 46 187 1.7 6.1 0.00 0.00 0.00 83 1012.7
20260507122502 44 198 0.9 3.5 0.00 0.00 0.00 91 1012.7
20260507122006 43 200 0.9 4.3 0.00 0.00 0.00 92 1012.7
20260507121512 42 151 0.9 4.3 0.00 0.00 0.00 93 1012.8
20260507121004 42 159 1.7 3.5 0.00 0.00 0.00 93 1012.7
20260507120509 41 176 0.0 2.6 0.00 0.00 0.00 93 1012.7
20260507120020 41 175 0.0 2.6 0.00 0.00 0.00 94 1012.7
20260507115505 40 92 0.0 0.9 0.00 0.00 0.00 94 1012.7
20260507115004 39 17 0.0 0.0 0.00 0.00 0.00 94 1012.8
20260507114509 38 17 0.0 0.0 0.00 0.00 0.00 94 1012.8
20260507114005 38 17 0.0 0.0 0.00 0.00 0.00 94 1012.8
20260507113503 37 17 0.0 0.0 0.00 0.00 0.00 94 1012.8
20260507113010 36 17 0.0 0.0 0.00 0.00 0.00 93 1012.7
20260507112005 35 17 0.0 0.0 0.00 0.00 0.00 93 1012.5
20260507111513 35 17 0.0 0.0 0.00 0.00 0.00 93 1012.5
20260507111003 34 17 0.0 0.0 0.00 0.00 0.00 92 1012.5
20260507110014 34 17 0.0 0.0 0.00 0.00 0.00 92 1012.4
20260507105508 34 17 0.0 0.0 0.00 0.00 0.00 92 1012.3
20260507105003 34 17 0.0 0.0 0.00 0.00 0.00 92 1012.3
20260507104515 34 17 0.0 0.0 0.00 0.00 0.00 92 1012.3
20260507104006 34 17 0.0 0.0 0.00 0.00 0.00 92 1012.3
20260507103503 34 17 0.0 0.0 0.00 0.00 0.00 92 1012.3
20260507103026 34 17 0.0 0.0 0.00 0.00 0.00 92 1012.2
20260507102503 34 17 0.0 0.0 0.00 0.00 0.00 91 1012.1
20260507102003 34 17 0.0 0.0 0.00 0.00 0.00 91 1012.1
20260507101510 34 17 0.0 0.0 0.00 0.00 0.00 91 1012.1
20260507101005 34 17 0.0 0.0 0.00 0.00 0.00 91 1012.2
20260507100505 34 17 0.0 0.0 0.00 0.00 0.00 91 1012.2
20260507100012 34 17 0.0 0.0 0.00 0.00 0.00 91 1012.1
20260507095506 34 17 0.0 0.0 0.00 0.00 0.00 91 1012.1
20260507095004 34 17 0.0 0.0 0.00 0.00 0.00 91 1012.2
20260507094511 34 17 0.0 0.0 0.00 0.00 0.00 91 1012.2
20260507094003 35 17 0.0 0.0 0.00 0.00 0.00 91 1012.1
20260507093503 35 17 0.0 0.0 0.00 0.00 0.00 91 1012.1
20260507093010 35 17 0.0 0.0 0.00 0.00 0.00 91 1012.1
20260507092507 35 17 0.0 0.0 0.00 0.00 0.00 90 1012.2
20260507092003 35 17 0.0 0.0 0.00 0.00 0.00 90 1012.3
20260507091509 35 17 0.0 0.0 0.00 0.00 0.00 90 1012.2
20260507091004 35 17 0.0 0.0 0.00 0.00 0.00 90 1012.3
20260507090505 36 17 0.0 0.0 0.00 0.00 0.00 90 1012.3
20260507090012 36 17 0.0 0.9 0.00 0.00 0.00 90 1012.2
20260507085504 36 17 0.0 0.9 0.00 0.00 0.00 90 1012.1
20260507085004 36 17 0.0 0.0 0.00 0.00 0.00 90 1012.2
20260507084511 36 17 0.0 1.7 0.00 0.00 0.00 90 1012.2
20260507084004 36 17 0.0 1.7 0.00 0.00 0.00 90 1012.2
20260507083504 36 17 0.0 1.7 0.00 0.00 0.00 89 1012.2
20260507083010 37 17 0.0 0.0 0.00 0.00 0.00 89 1012.3
20260507082504 37 17 0.0 0.0 0.00 0.00 0.00 89 1012.3
20260507082003 37 17 0.0 0.0 0.00 0.00 0.00 89 1012.2
20260507081508 37 17 0.0 0.9 0.00 0.00 0.00 89 1012.2
20260507081008 37 17 0.0 0.9 0.00 0.00 0.00 89 1012.3
20260507080507 38 17 0.0 0.9 0.00 0.00 0.00 89 1012.3
20260507080036 38 17 0.0 0.0 0.00 0.00 0.00 88 1012.3
20260507075511 38 17 0.0 0.0 0.00 0.00 0.00 88 1012.4
20260507075010 38 17 0.0 0.0 0.00 0.00 0.00 88 1012.4
20260507074528 38 17 0.0 0.0 0.00 0.00 0.00 88 1012.4
20260507074012 39 17 0.0 0.0 0.00 0.00 0.00 87 1012.4
20260507073512 39 17 0.0 0.0 0.00 0.00 0.00 87 1012.4
20260507073029 39 17 0.0 0.0 0.00 0.00 0.00 87 1012.3
20260507072509 39 17 0.0 0.0 0.00 0.00 0.00 87 1012.3
20260507072012 39 17 0.0 0.0 0.00 0.00 0.00 86 1012.4
20260507071556 40 17 0.0 0.0 0.00 0.00 0.00 86 1012.5
20260507071009 40 17 0.0 0.0 0.00 0.00 0.00 86 1012.4
20260507070511 40 17 0.0 0.0 0.00 0.00 0.00 85 1012.5
20260507070030 40 17 0.0 0.0 0.00 0.00 0.00 85 1012.6
20260507065511 41 17 0.0 0.0 0.00 0.00 0.00 85 1012.5
20260507065010 41 17 0.0 0.9 0.00 0.00 0.00 84 1012.5
20260507064527 41 17 0.0 0.9 0.00 0.00 0.00 84 1012.5
20260507064015 42 17 0.0 0.9 0.00 0.00 0.00 83 1012.4
20260507063514 42 17 0.0 0.0 0.00 0.00 0.00 82 1012.4
20260507063025 42 17 0.0 0.0 0.00 0.00 0.00 82 1012.5
20260507062514 42 17 0.0 0.0 0.00 0.00 0.00 81 1012.4
20260507062010 42 17 0.0 1.7 0.00 0.00 0.00 81 1012.5
20260507061529 43 17 0.0 1.7 0.00 0.00 0.00 81 1012.7
20260507061010 43 17 0.0 0.0 0.00 0.00 0.00 81 1012.8
20260507060509 43 17 0.0 0.0 0.00 0.00 0.00 80 1012.8
20260507060030 43 17 0.0 0.0 0.00 0.00 0.00 80 1012.8
20260507055508 43 17 0.0 0.0 0.00 0.00 0.00 80 1012.8
20260507055012 44 17 0.0 0.0 0.00 0.00 0.00 80 1012.8
20260507054526 44 17 0.0 0.0 0.00 0.00 0.00 80 1012.7
20260507054012 44 17 0.0 0.0 0.00 0.00 0.00 79 1012.8
20260507053508 44 17 0.0 0.0 0.00 0.00 0.00 79 1012.9
20260507053032 44 17 0.0 0.0 0.00 0.00 0.00 79 1013.0
20260507052511 45 17 0.0 0.0 0.00 0.00 0.00 78 1013.1
20260507052010 45 17 0.0 0.0 0.00 0.00 0.00 77 1013.2
20260507051531 45 17 0.0 0.9 0.00 0.00 0.00 77 1013.3
20260507051010 45 17 0.0 0.9 0.00 0.00 0.00 77 1013.3
20260507050509 45 17 0.0 0.0 0.00 0.00 0.00 75 1013.3
20260507050035 45 17 0.0 0.0 0.00 0.00 0.00 73 1013.3
20260507045510 45 17 0.0 0.9 0.00 0.00 0.00 73 1013.3
20260507045012 45 17 0.0 0.9 0.00 0.00 0.00 73 1013.3
20260507044529 45 17 0.0 2.6 0.00 0.00 0.00 73 1013.4
20260507044008 46 17 0.0 2.6 0.00 0.00 0.00 73 1013.3
20260507043507 46 345 0.0 2.6 0.00 0.00 0.00 74 1013.3
20260507043026 46 44 0.0 0.9 0.00 0.00 0.00 73 1013.4
20260507042510 46 44 0.0 1.7 0.00 0.00 0.00 73 1013.3
20260507042008 46 28 0.0 1.7 0.00 0.00 0.00 72 1013.3
20260507041529 46 346 0.0 0.9 0.00 0.00 0.00 71 1013.3
20260507041007 46 346 0.0 1.7 0.00 0.00 0.00 71 1013.3
20260507040512 46 13 0.0 1.7 0.00 0.00 0.00 70 1013.3
20260507040028 46 360 0.0 0.9 0.00 0.00 0.00 70 1013.2
20260507035503 46 360 0.0 0.9 0.00 0.00 0.00 70 1013.2
20260507035003 46 360 0.0 0.9 0.00 0.00 0.00 69 1013.2
20260507034516 46 360 0.0 1.7 0.00 0.00 0.00 69 1013.2
20260507033016 46 344 0.0 2.6 0.00 0.00 0.00 68 1013.0
20260507032506 46 344 0.0 2.6 0.00 0.00 0.00 68 1013.0
20260507032003 46 360 0.0 2.6 0.00 0.00 0.00 68 1012.9
20260507031512 46 44 0.0 0.9 0.00 0.00 0.00 68 1012.9
20260507031004 47 44 0.0 0.9 0.00 0.00 0.00 68 1013.0
20260507030506 47 44 0.0 0.0 0.00 0.00 0.00 67 1013.0
20260507030013 47 44 0.0 0.0 0.00 0.00 0.00 66 1013.0
20260507025504 47 44 0.0 0.0 0.00 0.00 0.00 66 1013.0
20260507025002 47 44 0.0 0.0 0.00 0.00 0.00 66 1012.8
20260507024509 47 44 0.0 0.9 0.00 0.00 0.00 65 1012.8
20260507024006 47 44 0.0 0.9 0.00 0.00 0.00 64 1012.8
20260507023503 48 44 0.0 1.7 0.00 0.00 0.00 64 1012.8
20260507022003 48 28 0.0 3.5 0.00 0.00 0.00 64 1012.7
20260507021004 48 24 0.0 1.7 0.00 0.00 0.00 64 1012.5
20260507020503 48 28 0.0 1.7 0.00 0.00 0.00 63 1012.5
20260507020017 48 28 0.0 3.5 0.00 0.00 0.00 63 1012.5
20260507015503 48 46 0.9 4.3 0.00 0.00 0.00 63 1012.3
20260507015005 48 20 1.7 4.3 0.00 0.00 0.00 62 1012.4
20260507014513 48 19 0.9 3.5 0.00 0.00 0.00 62 1012.4
20260507014006 48 34 0.9 3.5 0.00 0.00 0.00 62 1012.2
20260507013503 49 5 0.0 3.5 0.00 0.00 0.00 62 1012.1
20260507013008 49 11 0.9 3.5 0.00 0.00 0.00 61 1012.0